TimeEDT,TemperatureF,Dew PointF,Humidity,Sea Level PressureIn,VisibilityMPH,Wind Direction,Wind SpeedMPH,Gust SpeedMPH,PrecipitationIn,Events,Conditions,WindDirDegrees,DateUTC
12:53 AM,46.9,43.0,86,30.20,10.0,Calm,Calm,-,N/A,,Scattered Clouds,0,2012-10-11 04:53:00
1:53 AM,45.0,42.1,90,30.21,10.0,Calm,Calm,-,N/A,,Clear,0,2012-10-11 05:53:00
2:53 AM,41.0,39.9,96,30.22,5.0,Calm,Calm,-,N/A,,Clear,0,2012-10-11 06:53:00
3:53 AM,39.0,37.0,93,30.22,9.0,Calm,Calm,-,N/A,,Clear,0,2012-10-11 07:53:00
4:53 AM,37.9,37.0,97,30.23,10.0,Calm,Calm,-,N/A,,Clear,0,2012-10-11 08:53:00
5:53 AM,37.0,35.1,93,30.25,4.0,Calm,Calm,-,N/A,,Clear,0,2012-10-11 09:53:00
6:14 AM,37.4,35.6,93,30.27,8.0,Calm,Calm,-,N/A,,Scattered Clouds,0,2012-10-11 10:14:00
6:22 AM,37.4,35.6,93,30.28,2.5,Calm,Calm,-,N/A,,Mostly Cloudy,0,2012-10-11 10:22:00
6:24 AM,37.4,35.6,93,30.28,1.0,Calm,Calm,-,N/A,,Mist,0,2012-10-11 10:24:00
6:31 AM,37.4,35.6,93,30.28,0.5,Calm,Calm,-,N/A,Fog,Fog,0,2012-10-11 10:31:00
6:46 AM,37.4,35.6,93,30.28,0.2,Calm,Calm,-,N/A,Fog,Fog,0,2012-10-11 10:46:00
6:53 AM,37.0,37.0,100,30.26,0.0,Calm,Calm,-,N/A,Fog,Fog,0,2012-10-11 10:53:00
7:29 AM,35.6,35.6,100,30.28,1.0,North,3.5,-,N/A,,Mist,350,2012-10-11 11:29:00
7:40 AM,35.6,35.6,100,30.28,1.0,Calm,Calm,-,N/A,,Scattered Clouds,0,2012-10-11 11:40:00
7:50 AM,35.6,35.6,100,30.29,1.5,Calm,Calm,-,N/A,,Scattered Clouds,0,2012-10-11 11:50:00
7:53 AM,36.0,35.1,97,30.27,2.0,Calm,Calm,-,N/A,,Mostly Cloudy,0,2012-10-11 11:53:00
8:02 AM,35.6,35.6,100,30.28,0.5,Calm,Calm,-,N/A,Fog,Fog,0,2012-10-11 12:02:00
8:53 AM,39.0,39.0,100,30.28,0.5,Calm,Calm,-,N/A,Fog,Fog,0,2012-10-11 12:53:00
9:53 AM,43.0,42.1,97,30.29,1.0,Calm,Calm,-,N/A,,Mostly Cloudy,0,2012-10-11 13:53:00
10:00 AM,42.8,41.0,93,30.31,10.0,Calm,Calm,-,N/A,,Partly Cloudy,0,2012-10-11 14:00:00
10:53 AM,51.1,42.1,71,30.28,10.0,Variable,3.5,-,N/A,,Clear,0,2012-10-11 14:53:00
11:53 AM,55.9,37.9,51,30.27,10.0,Calm,Calm,-,N/A,,Clear,0,2012-10-11 15:53:00
12:53 PM,57.0,37.9,49,30.25,10.0,Calm,Calm,-,N/A,,Clear,0,2012-10-11 16:53:00
1:53 PM,61.0,37.9,42,30.22,10.0,Variable,3.5,-,N/A,,Clear,0,2012-10-11 17:53:00
2:53 PM,64.0,37.9,38,30.20,10.0,Variable,3.5,-,N/A,,Clear,0,2012-10-11 18:53:00
3:53 PM,66.0,39.9,38,30.19,10.0,SW,3.5,-,N/A,,Clear,230,2012-10-11 19:53:00
4:53 PM,66.0,30.0,26,30.18,10.0,WSW,8.1,-,N/A,,Clear,240,2012-10-11 20:53:00
5:53 PM,64.0,34.0,33,30.19,10.0,WSW,8.1,-,N/A,,Clear,240,2012-10-11 21:53:00
6:53 PM,59.0,36.0,42,30.20,10.0,WSW,4.6,-,N/A,,Clear,240,2012-10-11 22:53:00
7:53 PM,53.1,39.0,59,30.21,10.0,Calm,Calm,-,N/A,,Clear,0,2012-10-11 23:53:00
8:53 PM,51.1,41.0,68,30.22,10.0,Calm,Calm,-,N/A,,Partly Cloudy,0,2012-10-12 00:53:00
9:53 PM,46.9,42.1,83,30.23,10.0,Calm,Calm,-,N/A,,Partly Cloudy,0,2012-10-12 01:53:00
10:53 PM,46.9,42.1,83,30.23,10.0,Calm,Calm,-,N/A,,Scattered Clouds,0,2012-10-12 02:53:00
11:53 PM,45.0,42.1,90,30.22,10.0,Calm,Calm,-,N/A,,Scattered Clouds,0,2012-10-12 03:53:00